Location: ??????
(56.0120°N, 39.1740°E)
Time: 10:48:00
(UTC+00:00)

Cosmos 2233 Rocket - Pass Details

Date: 14 April 2026
Orbit: 951 x 991 km, 82.9° (Epoch: 19 May)

Event Time Altitude Azimuth Distance (km) Brightness Sun altitude
Exits shadow 21:53:27 52° 199° (SSW) 1,216 4.1 -24.0°
Maximum altitude 21:55:09 84° 281° (W) 998 3.9 -24.0°
Drops below altitude 10° 22:01:29 10° 11° (N) 2,743 7.5 -23.8°
Sets 22:04:00 0° 12° (NNE) 3,689 8.5 -23.8°
